DMSP 5D-2 F13 DEB, 42325

Orbit data source: Space-Track

DMSP 5D-2 F13 DEB, 42325 is space debris in SSO originally from a launch on Fri, 24 Mar 1995 UTC launched from the Air Force Western Test Range (AFWTR). Debris objects in space refer to the collection of defunct objects orbiting the Earth. Examples of debris include non-operational satellites, rocket bodies, and fragments generated from explosions, collisions, or faulty payload assembly.

Loading next visibility...
Identifier
42325, 1995-015JT
Orbit
SSO
Country
Flag of USUS
Related business
Manufacturer
Unknown
Mission
Spacecraft
Bus & Motor
Unknown
Mass
Unknown
Launch date (UTC)
1995-03-24 (31 years ago)
Launch vehicle
Unknown
Launch site
Air Force Western Test Range (AFWTR)
Object type
Payload
Rocket body
Debris
Shape & HBR
Unknown shape, 0.1 m
Radar Cross Section
Small (<0.1 m²)

Expand to show TLE details & history
Last TLE update: 3 days ago

TLE from 3 days ago
0 DMSP 5D-2 F13 DEB
1 42325U 95015JT  26170.07992707  .00004597  00000-0  13713-2 0  9995
2 42325  98.7165 217.4152 0013136 133.0696 227.1596 14.43467315553045
Epoch: 2026-06-19T01:55Z
TLE epoch observation values (Epoch: 2026-06-19T01:55:05.698Z)
Latitude
0.00003°
Longitude
-78.67259°
Altitude
756.384 km
Speed
7.473 km/s
True Right ascension
14h 29m 39s
True Declination
0° 00' 00"
Sunlit
Object was in full shadow at epoch
Visualization orbit readout
Latitude
Unknown
Longitude
Unknown
Altitude
Unknown
Speed
Unknown
Apparent Right ascension
Unknown
Apparent Declination
Unknown
Sunlit
N/A
Visualization observer readout
Local Sidereal Time
23:27:11
Azimuth
Unknown
Elevation
Unknown
Doppler factor
Unknown
Orbital elements
Apogee altitude
753.549 km
Perigee altitude
734.837 km
Semi-major axis
7,122.33 km
Eccentricity
0.00131
Inclination
98.7165°
RAAN
217.4152°
Arg. of periapsis
133.0696°
True anomaly
227.04935°
Mean anomaly
227.1596°
Eccentric anomaly
227.10446°
Mean motion
3.61085 °/min
Orbital period
99.7 mins
BSTAR
0.0013713

Documentation

Showing up to 5 results
|